FW8055 Weather Reports


Display with metric or nautical units.
time (UTC)temp
F
wind
direction
speed
MPH
gust
MPH
rain 1hr
in
rain 24hr
in
rain mn
in
humidity
%
barometer
mb
20260902194559 59 0 0.0 5.0 0.01 0.23 0.23 91 1008.0
20260902193101 59 151 0.0 5.0 0.02 0.23 0.23 91 1008.0
20260902191558 58 0 0.0 3.0 0.02 0.22 0.22 91 1007.9
20260902190057 58 22 0.0 4.0 0.02 0.22 0.22 91 1008.0
20260902184558 58 240 0.0 3.0 0.02 0.22 0.22 91 1007.8
20260902183051 58 0 1.0 5.0 0.05 0.21 0.21 91 1008.0
20260902181600 58 0 1.0 5.0 0.09 0.20 0.20 91 1007.9
20260902180126 57 188 0.0 5.0 0.13 0.20 0.20 91 1008.0
20260902174552 58 156 0.0 3.0 0.15 0.19 0.19 91 1008.0
20260902173057 58 0 0.0 3.0 0.12 0.16 0.16 91 1008.3
20260902171558 58 0 0.0 2.0 0.07 0.11 0.11 90 1008.2
20260902170057 58 237 0.0 3.0 0.04 0.06 0.06 89 1008.0
20260902164559 58 219 0.0 7.0 0.04 0.04 0.04 87 1007.9
20260902163103 58 230 0.0 2.0 0.04 0.04 0.04 88 1007.8
20260902161559 59 0 0.0 1.0 0.03 0.03 0.03 86 1008.0
20260902160055 60 0 0.0 1.0 0.02 0.02 0.02 82 1008.1
20260902154559 61 240 0.0 2.0 0.00 0.00 0.00 76 1008.2
20260902153053 60 0 0.0 4.0 0.00 0.00 0.00 76 1008.2
20260902151552 60 0 0.0 2.0 0.00 0.00 0.00 78 1008.3
20260902150051 60 0 0.0 1.0 0.00 0.00 0.00 80 1008.3
20260902144555 59 257 0.0 0.0 0.00 0.00 0.00 81 1008.3
20260902143056 59 0 0.0 2.0 0.00 0.00 0.00 81 1008.6
20260902141554 59 0 0.0 2.0 0.00 0.00 0.00 80 1008.8
20260902140055 59 0 0.0 4.0 0.00 0.00 0.00 82 1008.9
20260902134557 58 0 0.0 0.0 0.00 0.00 0.00 84 1009.0
20260902133051 58 0 0.0 4.0 0.00 0.00 0.00 85 1009.2
20260902131553 57 0 0.0 2.0 0.00 0.00 0.00 86 1009.3
20260902130103 57 0 0.0 2.0 0.00 0.00 0.00 87 1009.4
20260902124559 57 0 0.0 2.0 0.00 0.00 0.00 87 1009.7
20260902123057 57 0 0.0 1.0 0.00 0.00 0.00 87 1009.8
20260902121559 57 0 0.0 1.0 0.00 0.00 0.00 86 1010.0
20260902120059 58 0 0.0 0.0 0.00 0.00 0.00 86 1010.3
20260902114557 58 0 0.0 1.0 0.00 0.00 0.00 86 1010.4
20260902113058 57 210 0.0 2.0 0.00 0.00 0.00 87 1010.6
20260902111554 57 0 0.0 1.0 0.00 0.00 0.00 87 1010.8
20260902104557 57 0 0.0 0.0 0.00 0.00 0.00 87 1011.1
20260902103052 57 0 0.0 0.0 0.00 0.00 0.00 86 1011.2
20260902101549 58 121 0.0 1.0 0.00 0.00 0.00 86 1011.3
20260902100109 58 0 0.0 2.0 0.00 0.00 0.00 86 1011.4
20260902094556 57 0 0.0 0.0 0.00 0.00 0.00 86 1011.5
20260902093051 57 0 0.0 0.0 0.00 0.00 0.00 87 1011.8
20260902091556 57 0 0.0 0.0 0.00 0.00 0.00 87 1011.9
20260902090055 57 0 0.0 1.0 0.00 0.00 0.00 87 1012.0
20260902084600 57 241 0.0 0.0 0.00 0.00 0.00 87 1012.1
20260902083047 56 0 0.0 0.0 0.00 0.00 0.00 87 1012.2
20260902081604 56 0 0.0 0.0 0.00 0.00 0.00 87 1012.3
20260902080054 57 0 0.0 0.0 0.00 0.00 0.00 86 1012.2
20260902074550 57 0 0.0 0.0 0.00 0.00 0.00 85 1012.3
20260902073100 58 0 0.0 0.0 0.00 0.00 0.00 84 1012.3
20260902071557 58 0 0.0 0.0 0.00 0.00 0.00 83 1012.3
20260902070058 59 0 0.0 0.0 0.00 0.00 0.00 82 1012.3
20260902064601 60 0 0.0 0.0 0.00 0.00 0.00 82 1012.3
20260902063100 60 0 0.0 0.0 0.00 0.00 0.00 82 1012.6
20260902061606 60 0 0.0 0.0 0.00 0.00 0.00 81 1012.8
20260902060107 61 0 0.0 0.0 0.00 0.00 0.00 80 1013.0
20260902054554 61 0 0.0 1.0 0.00 0.00 0.00 79 1013.1
20260902053052 61 0 0.0 0.0 0.00 0.00 0.00 79 1013.4
20260902051604 61 0 0.0 0.0 0.00 0.00 0.00 79 1013.4
20260902050110 61 0 0.0 0.0 0.00 0.00 0.00 79 1013.4
20260902044555 61 0 0.0 0.0 0.00 0.00 0.00 79 1013.4
20260902043057 62 0 0.0 0.0 0.00 0.00 0.00 77 1013.3
20260902041601 62 0 0.0 0.0 0.00 0.00 0.00 76 1013.3
20260902040059 63 0 0.0 0.0 0.00 0.00 0.00 75 1013.0
20260902034556 63 0 0.0 0.0 0.00 0.00 0.00 73 1012.8
20260902033103 64 0 0.0 0.0 0.00 0.00 0.00 73 1012.8
20260902031602 64 0 0.0 1.0 0.00 0.00 0.00 71 1012.7
20260902030054 65 0 0.0 3.0 0.00 0.00 0.00 71 1012.6
20260902024554 65 0 0.0 2.0 0.00 0.00 0.00 70 1012.7
20260902023053 65 0 0.0 2.0 0.00 0.00 0.00 70 1012.8
20260902021556 65 0 0.0 2.0 0.00 0.00 0.00 69 1012.8
20260902020058 66 21 0.0 3.0 0.00 0.00 0.00 68 1012.7
20260902014551 66 0 1.0 4.0 0.00 0.00 0.00 67 1012.7
20260902013100 67 0 0.0 4.0 0.00 0.00 0.00 66 1012.6
20260902011556 67 0 1.0 4.0 0.00 0.00 0.00 65 1012.7
20260902010104 67 0 0.0 4.0 0.00 0.00 0.00 66 1012.5
20260902004604 67 360 0.0 5.0 0.00 0.00 0.00 65 1012.4
20260902003053 67 23 0.0 5.0 0.00 0.00 0.00 65 1012.3
20260902001612 67 25 0.0 3.0 0.00 0.00 0.00 65 1012.4
20260902000055 67 0 1.0 5.0 0.00 0.00 0.00 65 1012.2
20260901234551 68 78 1.0 5.0 0.00 0.00 0.00 64 1012.1
20260901233100 68 21 1.0 4.0 0.00 0.00 0.00 63 1012.3
20260901231559 68 330 1.0 4.0 0.00 0.00 0.00 62 1012.1
20260901230055 69 338 1.0 4.0 0.00 0.00 0.00 61 1012.3
20260901224602 68 17 1.0 5.0 0.00 0.00 0.00 63 1012.3
20260901223059 67 24 1.0 4.0 0.00 0.00 0.00 63 1012.6
20260901221601 67 237 0.0 2.0 0.00 0.00 0.00 64 1012.5
20260901220055 68 0 0.0 2.0 0.00 0.00 0.00 62 1012.4
20260901214559 67 0 0.0 3.0 0.00 0.00 0.00 63 1012.4
20260901213116 67 42 0.0 4.0 0.00 0.00 0.00 63 1012.3
20260901211553 67 13 0.0 3.0 0.00 0.00 0.00 62 1012.4
20260901210110 67 21 0.0 2.0 0.00 0.00 0.00 62 1012.5
20260901204601 67 80 0.0 2.0 0.00 0.00 0.00 61 1012.4
20260901203055 67 0 0.0 4.0 0.00 0.00 0.00 61 1012.4
20260901201551 67 0 0.0 3.0 0.00 0.00 0.00 60 1012.6
20260901200053 67 0 1.0 3.0 0.00 0.00 0.00 60 1012.8